Вернуться в каталог

STARLINK-37384

АктивенСвязьVLEO
NORAD 69460·PAYLOAD·🇺🇸 United States

Запущен Jun 8, 2026 с Cape Canaveral Space Force Station

Loading…

Ближайшие Пролёты (ближайшие 24 часа)

TLE

СвежийSource: CelesTrak SupGP

Эпоха: Sep 15, 2026, 04:14 UTC

1 69460C 26127T   26258.17687500 -.00015191  00000+0 -44875-3 0  2587
2 69460  53.1577 190.8484 0001346  84.6066 189.0544 15.34403260    13

Отслеживайте STARLINK-37384 в реальном времени с AllMySat

Download on the App Store